Location: Bothwell
(42.3833°S, 147.0000°E)
Time: 13:57:49
(UTC+11:00)

FO-29 - Pass Details

Date: 14 June 2023
Orbit: 799 x 1321 km, 98.5° (Epoch: 01 October)

Event Time Altitude Azimuth Distance (km) Brightness Sun altitude
Rises 18:45:06 0° 180° (S) 4,261 12.7 -21.3°
Reaches altitude 10° 18:49:19 10° 201° (SSW) 3,206 12.3 -22.1°
Maximum altitude 18:52:56 15° 230° (SW) 2,783 12.3 -22.7°
Drops below altitude 10° 18:56:23 10° 261° (W) 3,021 13.0 -23.3°
Sets 19:00:10 0° 283° (WNW) 3,862 14.1 -24.0°
